Location: Unspecified
(0.0000°N, 0.0000°E)
Time: 08:13:47
(UTC+00:00)

HEATHSAT - Visible Passes

Search period start: 09 June 2023 00:00
Search period end: 19 June 2023 00:00
Orbit: 779 x 793 km, 98.8° (Epoch: 08 June)

Date Brightness Start Highest point End Pass type
(mag) Time Alt. Az. Time Alt. Az. Time Alt. Az.
09 Jun 9.8 20:28:16 17° N 20:28:16 17° N 20:29:30 10° N visible
10 Jun 9.8 19:57:13 13° NNE 19:57:13 13° NNE 19:57:59 10° NNE visible
11 Jun 10.3 21:06:49 13° NNW 21:06:49 13° NNW 21:07:25 10° NNW visible
12 Jun 9.8 20:35:45 18° N 20:35:45 18° N 20:37:01 10° N visible
13 Jun 9.7 20:04:43 15° NNE 20:04:43 15° NNE 20:05:45 10° NNE visible
14 Jun 10.5 21:14:18 12° NW 21:14:18 12° NW 21:14:41 10° NW visible
15 Jun 9.9 20:43:15 18° N 20:43:15 18° N 20:44:30 10° N visible
16 Jun 9.7 20:12:12 17° NNE 20:12:12 17° NNE 20:13:26 10° NNE visible
17 Jun 10.6 21:21:47 11° NW 21:21:47 11° NW 21:21:54 10° NW visible
18 Jun 10.0 20:50:45 17° NNW 20:50:45 17° NNW 20:51:55 10° NNW visible
